Regional Weather Roundup
Issued by NWS

Home | Current Version | Previous Version | Graphics & Text | Print | Product List | Glossary On
Versions: 1 2 3 4 5 6 7 8 9 10 11 12 13 14 15 16 17 18 19 20 21 22 23 24 25 26 27 28 29 30 31 32 33 34 35 36 37 38 39 40 41 42 43 44 45 46 47 48 49 50
000
ASUS43 KFSD 271310
RWRSD

WEATHER ROUNDUP FOR SOUTH DAKOTA
NATIONAL WEATHER SERVICE SIOUX FALLS SD
800 AM CDT WED JUL 27 2016

NOTE: "FAIR" INDICATES FEW OR NO CLOUDS BELOW 12,000 FEET WITH NO
SIGNIFICANT WEATHER AND/OR OBSTRUCTIONS TO VISIBILITY.


SDZ001>005-009-010-012>017-271400-
NORTHWEST AND NORTH CENTRAL SOUTH DAKOTA

CITY           SKY/WX    TMP DP  RH WIND       PRES   REMARKS
BUFFALO          N/A     63  61  93 NE9       30.07R
FAITH            N/A     63  62  97 NE6       30.08F
MOBRIDGE       CLOUDY    68  62  81 N5        30.05R
$$

SDZ012>016-024>037-041>051-057-063-072>074-271400-
SOUTHWEST AND SOUTH CENTRAL SOUTH DAKOTA

CITY           SKY/WX    TMP DP  RH WIND       PRES   REMARKS
RAPID CTY ARPT CLOUDY    66  62  87 CALM      30.14R
PIERRE         SUNNY     67  63  87 NW6       30.02S
CUSTER         CLOUDY    58  54  86 SW5       30.26S
ELLSWORTH AFB  CLOUDY    66  64  94 SW10      30.13
PHILIP         CLOUDY    67  64  90 NW8       30.07R
PINE RIDGE     CLOUDY    62  61  96 SW10      30.16R
WINNER         FAIR      68  59  73 W7        30.04R
$$

SDZ004>011-016>023-039-040-271400-
NORTHEAST SOUTH DAKOTA

CITY           SKY/WX    TMP DP  RH WIND       PRES   REMARKS
ABERDEEN       MOSUNNY   69  64  84 N10       30.03R
WATERTOWN      MOSUNNY   68  64  87 N9        30.01R
BROOKINGS      LGT RAIN  67  64  90 E7        29.97F
SISSETON         N/A     66  64  93 N6        30.00R
$$

SDZ017-020-022-023-036>040-048>070-271400-
SOUTHEAST SOUTH DAKOTA

CITY           SKY/WX    TMP DP  RH WIND       PRES   REMARKS
SIOUX FALLS    PTSUNNY   73  64  73 NW5       29.98R
HURON          SUNNY     69  65  86 N7        29.98S
CHAMBERLAIN    SUNNY     70  62  77 CALM      30.02S
MITCHELL       MOSUNNY   71  65  81 NW9       29.98S
YANKTON        CLOUDY    70  61  73 NW5       29.98R
$$

ABBREVIATIONS USED IN REMARKS
   TC - TEMPERATURE IN CELSIUS
  WCI - WIND CHILL INDEX
   HX - HEAT INDEX
  VSB - VISIBILITY





USA.gov is the U.S. government's official web portal to all federal, state and local government web resources and services.